Voltar ao catálogo

COSMOS 489

AtivoMilitarLEO
NORAD 6019·PAYLOAD·🇷🇺 Russia

Lançado May 6, 1972 de Plesetsk Cosmodrome

Loading…

Próximas Passagens (próximas 24 horas)

TLE

AtualizadoSource: Space-Track

Época: Sep 14, 2026, 04:38 UTC

1 06019U 72035A   26257.19332348  .00000016  00000-0  39870-4 0  9996
2 06019  74.0212 178.1876 0023281  97.6795  54.2103 13.76157576729125

Acompanhe COSMOS 489 em tempo real com AllMySat

Download on the App Store